This is the latest recevied weather packets stored in our database for station/object IK1PCD-11. If no packets are shown the sender has not sent any weather packets the latest 1 day(s).
| Time | Temp. | Humidity | Pressure | Rain* | Wind** | Luminosity | Snow |
|---|---|---|---|---|---|---|---|
| 1777780675 | 4.44° C | 75% | 1018.9 hPa | - | - | - | - |
| 1777779775 | 4.44° C | 75% | 1019.1 hPa | - | - | - | - |
| 1777778875 | 4.44° C | 79% | 1019.1 hPa | - | - | - | - |
| 1777777975 | 4.44° C | 79% | 1019.1 hPa | - | - | - | - |
| 1777777074 | 4.44° C | 78% | 1019.1 hPa | - | - | - | - |
| 1777776174 | 4.44° C | 78% | 1019.2 hPa | - | - | - | - |
| 1777775274 | 4.44° C | 78% | 1019.2 hPa | - | - | - | - |
| 1777774374 | 4.44° C | 82% | 1019.2 hPa | - | - | - | - |
| 1777773474 | 4.44° C | 80% | 1019.4 hPa | - | - | - | - |
| 1777772574 | 4.44° C | 80% | 1019.4 hPa | - | - | - | - |
| 1777771674 | 4.44° C | 80% | 1019.5 hPa | - | - | - | - |
| 1777770774 | 5° C | 77% | 1019.6 hPa | - | - | - | - |
| 1777767173 | 5° C | 72% | 1019.9 hPa | - | - | - | - |
| 1777766279 | 5° C | 73% | 1020 hPa | - | - | - | - |
| 1777765379 | 5° C | 71% | 1020.1 hPa | - | - | - | - |
| 1777764479 | 5° C | 73% | 1020.3 hPa | - | - | - | - |
| 1777763579 | 4.44° C | 71% | 1020.4 hPa | - | - | - | - |
| 1777762679 | 5° C | 70% | 1020.5 hPa | - | - | - | - |
| 1777761779 | 5° C | 69% | 1020.7 hPa | - | - | - | - |
| 1777760879 | 5° C | 69% | 1020.6 hPa | - | - | - | - |
| 1777759979 | 5° C | 68% | 1020.7 hPa | - | - | - | - |
| 1777759079 | 5° C | 70% | 1020.8 hPa | - | - | - | - |
| 1777758178 | 5.56° C | 72% | 1020.7 hPa | - | - | - | - |
| 1777756378 | 6.11° C | 68% | 1020.7 hPa | - | - | - | - |
| 1777755478 | 6.11° C | 69% | 1020.8 hPa | - | - | - | - |
* Rain since midnight (hover to see other rain measurements)
** Current wind speed in m/s (hover to see current wind gust speed)